Location: Hilton Head Island
(32.2163°N, 80.7526°W)
Time: 00:10:31
(UTC-05:00)

Tiros 1 despin weight - Pass Details

Date: 19 February 2026
Orbit: 556 x 593 km, 48.2° (Epoch: 5 March)

Event Time Altitude Azimuth Distance (km) Brightness Sun altitude
Rises 21:59:26 0° 298° (WNW) 2,735 - -48.0°
Reaches altitude 10° 22:01:53 10° 288° (WNW) 1,841 - -48.5°
Maximum altitude 22:05:32 29° 227° (SW) 1,035 - -49.2°
Drops below altitude 10° 22:09:13 10° 166° (SSE) 1,849 - -50.0°
Sets 22:11:41 0° 155° (SSE) 2,749 - -50.4°
